TIANLIAN 2-02

Last updated on Fri Dec 19 2025 00:02:53 GMT+0000 (Coordinated Universal Time)

1 50005U 21124A 25352.58784148 .00000011 00000+0 00000+0 0 9992 2 50005 0.3349 90.4508 0005421 175.7560 203.8413 1.00273289 14817
UTC large
Height (km)
Speed (km/s)
/
Latitude / Longitude
Inclination (degrees)
Orbital Period (minutes)
Azimuth
Elevation
Range (km)
Doppler Factor

Next 0 passes for location: London (51.5072 / 0.1276)

Sorry there are no passes over London.